Year,Month,Day,Hour,Minute,Value (Times are PST for temperature in C)
2009,08,07,07,36,11.70
2009,08,07,07,37,11.70
2009,08,07,07,38,11.80
2009,08,07,07,39,11.80
2009,08,07,07,40,11.80
2009,08,07,07,41,11.90
2009,08,07,07,42,11.90
2009,08,07,07,43,11.90
2009,08,07,07,44,11.90
2009,08,07,07,45,12.00
2009,08,07,07,46,12.00
2009,08,07,07,47,12.10
2009,08,07,07,48,12.10
2009,08,07,07,49,12.20
2009,08,07,07,50,12.20
2009,08,07,07,51,12.20
2009,08,07,07,52,12.30
2009,08,07,07,53,12.30
2009,08,07,07,54,12.30
2009,08,07,07,55,12.30
2009,08,07,07,56,12.30
2009,08,07,07,57,12.40
2009,08,07,07,58,12.40
2009,08,07,07,59,12.40
2009,08,07,08,00,12.40
2009,08,07,08,01,12.50
2009,08,07,08,02,12.50
2009,08,07,08,03,12.60
2009,08,07,08,04,12.60
2009,08,07,08,05,12.60
2009,08,07,08,06,12.70
2009,08,07,08,07,12.70
2009,08,07,08,08,12.70
2009,08,07,08,09,12.80
2009,08,07,08,10,12.80
2009,08,07,08,11,12.80
2009,08,07,08,12,12.90
2009,08,07,08,13,12.90
2009,08,07,08,14,13.00
2009,08,07,08,15,13.00
2009,08,07,08,16,13.10
2009,08,07,08,17,13.10
2009,08,07,08,18,13.20
2009,08,07,08,19,13.20
2009,08,07,08,20,13.20
2009,08,07,08,21,13.30
2009,08,07,08,22,13.30
2009,08,07,08,23,13.40
2009,08,07,08,24,13.40
2009,08,07,08,25,13.50
2009,08,07,08,26,13.50
2009,08,07,08,27,13.50
2009,08,07,08,28,13.60
2009,08,07,08,29,13.60
2009,08,07,08,30,13.70
2009,08,07,08,31,13.70
2009,08,07,08,32,13.70
2009,08,07,08,33,13.70
2009,08,07,08,34,13.80
2009,08,07,08,35,13.80
2009,08,07,08,36,13.90
2009,08,07,08,37,13.90
2009,08,07,08,38,14.00
2009,08,07,08,39,14.00
2009,08,07,08,40,14.10
2009,08,07,08,41,14.10
2009,08,07,08,42,14.10
2009,08,07,08,43,14.10
2009,08,07,08,44,14.20
2009,08,07,08,45,14.20
2009,08,07,08,46,14.20
2009,08,07,08,47,14.20
2009,08,07,08,48,14.20
2009,08,07,08,49,14.30
2009,08,07,08,50,14.30
2009,08,07,08,51,14.30
2009,08,07,08,52,14.40
2009,08,07,08,53,14.40
2009,08,07,08,54,14.40
2009,08,07,08,55,14.50
2009,08,07,08,56,14.50
2009,08,07,08,57,14.60
2009,08,07,08,58,14.60
2009,08,07,08,59,14.70
2009,08,07,09,00,14.70
2009,08,07,09,01,14.80
2009,08,07,09,02,14.80
2009,08,07,09,03,14.90
2009,08,07,09,04,15.00
2009,08,07,09,05,15.00
2009,08,07,09,06,15.00
2009,08,07,09,07,15.00
2009,08,07,09,08,15.00
2009,08,07,09,09,15.00
2009,08,07,09,10,15.00
2009,08,07,09,11,15.00
2009,08,07,09,12,15.00
2009,08,07,09,13,15.00
2009,08,07,09,14,15.00
2009,08,07,09,15,15.00
2009,08,07,09,16,15.00
2009,08,07,09,17,15.00
2009,08,07,09,18,15.00
2009,08,07,09,19,15.00
2009,08,07,09,20,15.10
2009,08,07,09,21,15.10
2009,08,07,09,22,15.20
2009,08,07,09,23,15.20
2009,08,07,09,24,15.20
2009,08,07,09,25,15.30
2009,08,07,09,26,15.30
2009,08,07,09,27,15.30
2009,08,07,09,28,15.30
2009,08,07,09,29,15.30
2009,08,07,09,30,15.40
2009,08,07,09,31,15.40
2009,08,07,09,32,15.40
2009,08,07,09,33,15.50
2009,08,07,09,34,15.50
2009,08,07,09,35,15.50
2009,08,07,09,36,15.60
2009,08,07,09,37,15.60
2009,08,07,09,38,15.70
2009,08,07,09,39,15.70
2009,08,07,09,40,15.80
2009,08,07,09,41,15.80
2009,08,07,09,42,15.80
2009,08,07,09,43,15.80
2009,08,07,09,44,15.90
2009,08,07,09,45,15.90
2009,08,07,09,46,15.90
2009,08,07,09,47,15.90
2009,08,07,09,48,16.00
2009,08,07,09,49,16.00
2009,08,07,09,50,16.00
2009,08,07,09,51,16.00
2009,08,07,09,52,16.10
2009,08,07,09,53,16.10
2009,08,07,09,54,16.10
2009,08,07,09,55,16.10
2009,08,07,09,56,16.20
2009,08,07,09,57,16.20
2009,08,07,09,58,16.20
2009,08,07,09,59,16.30
2009,08,07,10,00,16.30
2009,08,07,10,01,16.30
2009,08,07,10,02,16.30
2009,08,07,10,03,16.40
2009,08,07,10,04,16.40
2009,08,07,10,05,16.50
2009,08,07,10,06,16.50
2009,08,07,10,07,16.50
2009,08,07,10,08,16.50
2009,08,07,10,09,16.50
2009,08,07,10,10,16.50
2009,08,07,10,11,16.40
2009,08,07,10,12,16.50
2009,08,07,10,13,16.50
2009,08,07,10,14,16.60
2009,08,07,10,15,16.60
2009,08,07,10,16,16.60
2009,08,07,10,17,16.70
2009,08,07,10,18,16.70
2009,08,07,10,19,16.70
2009,08,07,10,20,16.70
2009,08,07,10,21,16.70
2009,08,07,10,22,16.70
2009,08,07,10,23,16.70
2009,08,07,10,24,16.80
2009,08,07,10,25,16.90
2009,08,07,10,26,17.00
2009,08,07,10,27,17.10
2009,08,07,10,28,17.10
2009,08,07,10,29,17.20
2009,08,07,10,30,17.20
2009,08,07,10,31,17.20
2009,08,07,10,32,17.20
2009,08,07,10,33,17.20
2009,08,07,10,34,17.10
2009,08,07,10,35,17.10
2009,08,07,10,36,17.10
2009,08,07,10,37,17.10
2009,08,07,10,38,17.10
2009,08,07,10,39,17.20
2009,08,07,10,40,17.20
2009,08,07,10,41,17.20
2009,08,07,10,42,17.20
2009,08,07,10,43,17.30
2009,08,07,10,44,17.30
2009,08,07,10,45,17.30
2009,08,07,10,46,17.30
2009,08,07,10,47,17.30
2009,08,07,10,48,17.30
2009,08,07,10,49,17.30
2009,08,07,10,50,17.40
2009,08,07,10,51,17.40
2009,08,07,10,52,17.40
2009,08,07,10,53,17.50
2009,08,07,10,54,17.50
2009,08,07,10,55,17.60
2009,08,07,10,56,17.60
2009,08,07,10,57,17.70
2009,08,07,10,58,17.70
2009,08,07,10,59,17.80
2009,08,07,11,00,17.80
2009,08,07,11,01,17.90
2009,08,07,11,02,18.00
2009,08,07,11,03,18.00
2009,08,07,11,04,18.10
2009,08,07,11,05,18.20
2009,08,07,11,06,18.30
2009,08,07,11,07,18.30
2009,08,07,11,08,18.20
2009,08,07,11,09,18.20
2009,08,07,11,10,18.20
2009,08,07,11,11,18.20
2009,08,07,11,12,18.20
2009,08,07,11,13,18.10
2009,08,07,11,14,18.10
2009,08,07,11,15,18.00
2009,08,07,11,16,17.90
2009,08,07,11,17,17.90
2009,08,07,11,18,17.90
2009,08,07,11,19,17.80
2009,08,07,11,20,17.80
2009,08,07,11,21,17.90
2009,08,07,11,22,18.00
2009,08,07,11,23,18.20
2009,08,07,11,24,18.30
2009,08,07,11,25,18.40
2009,08,07,11,26,18.50
2009,08,07,11,27,18.60
2009,08,07,11,28,18.70
2009,08,07,11,29,18.80
2009,08,07,11,30,18.80
2009,08,07,11,31,18.80
2009,08,07,11,32,18.80
2009,08,07,11,33,18.80
2009,08,07,11,34,18.80
2009,08,07,11,35,18.80
2009,08,07,11,36,18.90
2009,08,07,11,37,18.90
2009,08,07,11,38,19.00
2009,08,07,11,39,19.00
2009,08,07,11,40,19.10
2009,08,07,11,41,19.10
2009,08,07,11,42,19.10
2009,08,07,11,43,19.10
2009,08,07,11,44,19.10
2009,08,07,11,45,19.00
2009,08,07,11,46,18.90
2009,08,07,11,47,18.90
2009,08,07,11,48,18.90
2009,08,07,11,49,18.90
2009,08,07,11,50,19.00
2009,08,07,11,51,19.00
2009,08,07,11,52,19.10
2009,08,07,11,53,19.20
2009,08,07,11,54,19.10
2009,08,07,11,55,19.10
2009,08,07,11,56,19.10
2009,08,07,11,57,19.00
2009,08,07,11,58,18.90
2009,08,07,11,59,18.90
2009,08,07,12,00,19.00
2009,08,07,12,01,19.00
2009,08,07,12,02,19.00
2009,08,07,12,03,19.00
2009,08,07,12,04,19.10
2009,08,07,12,05,19.10
2009,08,07,12,06,19.10
2009,08,07,12,07,19.10
2009,08,07,12,08,19.10
2009,08,07,12,09,19.10
2009,08,07,12,10,19.20
2009,08,07,12,11,19.20
2009,08,07,12,12,19.20
2009,08,07,12,13,19.20
2009,08,07,12,14,19.20
2009,08,07,12,15,19.20
2009,08,07,12,16,19.20
2009,08,07,12,17,19.20
2009,08,07,12,18,19.10
2009,08,07,12,19,19.10
2009,08,07,12,20,19.20
2009,08,07,12,21,19.20
2009,08,07,12,22,19.20
2009,08,07,12,23,19.20
2009,08,07,12,24,19.20
2009,08,07,12,25,19.20
2009,08,07,12,26,19.10
2009,08,07,12,27,19.00
2009,08,07,12,28,18.90
2009,08,07,12,29,18.90
2009,08,07,12,30,19.00
2009,08,07,12,31,19.00
2009,08,07,12,32,19.10
2009,08,07,12,33,19.20
2009,08,07,12,34,19.40
2009,08,07,12,35,19.50
2009,08,07,12,36,19.60
2009,08,07,12,37,19.60
2009,08,07,12,38,19.70
2009,08,07,12,39,19.80
2009,08,07,12,40,19.90
2009,08,07,12,41,20.00
2009,08,07,12,42,20.10
2009,08,07,12,43,20.20
2009,08,07,12,44,20.10
2009,08,07,12,45,20.00
2009,08,07,12,46,19.90
2009,08,07,12,47,19.80
2009,08,07,12,48,19.80
2009,08,07,12,49,19.80
2009,08,07,12,50,19.90
2009,08,07,12,51,19.90
2009,08,07,12,52,19.90
2009,08,07,12,53,19.90
2009,08,07,12,54,19.90
2009,08,07,12,55,20.00
2009,08,07,12,56,20.10
2009,08,07,12,57,20.10
2009,08,07,12,58,20.10
2009,08,07,12,59,20.00
2009,08,07,13,00,20.00
2009,08,07,13,01,20.00
2009,08,07,13,02,20.00
2009,08,07,13,03,20.00
2009,08,07,13,04,20.00
2009,08,07,13,05,20.10
2009,08,07,13,06,20.20
2009,08,07,13,07,20.30
2009,08,07,13,08,20.30
2009,08,07,13,09,20.30
2009,08,07,13,10,20.40
2009,08,07,13,11,20.30
2009,08,07,13,12,20.30
2009,08,07,13,13,20.30
2009,08,07,13,14,20.20
2009,08,07,13,15,20.20
2009,08,07,13,16,20.00
2009,08,07,13,17,20.00
2009,08,07,13,18,19.90
2009,08,07,13,19,19.80
2009,08,07,13,20,19.80
2009,08,07,13,21,19.80
2009,08,07,13,22,19.90
2009,08,07,13,23,19.80
2009,08,07,13,24,19.70
2009,08,07,13,25,19.60
2009,08,07,13,26,19.60
2009,08,07,13,27,19.60
2009,08,07,13,28,19.50
2009,08,07,13,29,19.50
2009,08,07,13,30,19.60
2009,08,07,13,31,19.70
2009,08,07,13,32,19.60
2009,08,07,13,33,19.50
2009,08,07,13,34,19.30
2009,08,07,13,35,19.10
2009,08,07,13,36,18.90
2009,08,07,13,37,18.80
2009,08,07,13,38,18.80
2009,08,07,13,39,18.70
2009,08,07,13,40,18.70
2009,08,07,13,41,18.70
2009,08,07,13,42,18.70
2009,08,07,13,43,18.70
2009,08,07,13,44,18.60
2009,08,07,13,45,18.40
2009,08,07,13,46,18.30
2009,08,07,13,47,18.10
2009,08,07,13,48,17.90
2009,08,07,13,49,17.70
2009,08,07,13,50,17.60
2009,08,07,13,51,17.50
2009,08,07,13,52,17.40
2009,08,07,13,53,17.30
2009,08,07,13,54,17.30
2009,08,07,13,55,17.40
2009,08,07,13,56,17.60
2009,08,07,13,57,17.60
2009,08,07,13,58,17.60
2009,08,07,13,59,17.60
2009,08,07,14,00,17.60
2009,08,07,14,01,17.60
2009,08,07,14,02,17.60
2009,08,07,14,03,17.70
2009,08,07,14,04,17.90
2009,08,07,14,05,17.90
2009,08,07,14,06,17.80
2009,08,07,14,07,17.70
2009,08,07,14,08,17.60
2009,08,07,14,09,17.70
2009,08,07,14,10,17.70
2009,08,07,14,11,17.70
2009,08,07,14,12,17.60
2009,08,07,14,13,17.60
2009,08,07,14,14,17.80
2009,08,07,14,15,17.80
2009,08,07,14,16,17.90
2009,08,07,14,17,17.80
2009,08,07,14,18,17.80
2009,08,07,14,19,17.70
2009,08,07,14,20,17.70
2009,08,07,14,21,17.70
2009,08,07,14,22,17.70
2009,08,07,14,23,17.70
2009,08,07,14,24,17.70
2009,08,07,14,25,17.70
2009,08,07,14,26,17.70
2009,08,07,14,27,17.80
2009,08,07,14,28,17.80
2009,08,07,14,29,17.80
2009,08,07,14,30,17.90
2009,08,07,14,31,18.00
2009,08,07,14,32,18.00
2009,08,07,14,33,18.00
2009,08,07,14,34,18.10
2009,08,07,14,35,18.20
2009,08,07,14,36,18.20
2009,08,07,14,37,18.30
2009,08,07,14,38,18.30
2009,08,07,14,39,18.30
2009,08,07,14,40,18.30
2009,08,07,14,41,18.20
2009,08,07,14,42,18.10
2009,08,07,14,43,18.00
2009,08,07,14,44,18.10
2009,08,07,14,45,18.10
2009,08,07,14,46,17.90
2009,08,07,14,47,17.80
2009,08,07,14,48,17.80
2009,08,07,14,49,17.90
2009,08,07,14,50,18.00
2009,08,07,14,51,18.00
2009,08,07,14,52,17.90
2009,08,07,14,53,17.90
2009,08,07,14,54,17.80
2009,08,07,14,55,17.80
2009,08,07,14,56,17.70
2009,08,07,14,57,17.70
2009,08,07,14,58,17.70
2009,08,07,14,59,17.70
2009,08,07,15,00,17.60
2009,08,07,15,01,17.60
2009,08,07,15,02,17.60
2009,08,07,15,03,17.50
2009,08,07,15,04,17.50
2009,08,07,15,05,17.60
2009,08,07,15,06,17.70
2009,08,07,15,07,17.60
2009,08,07,15,08,17.50
2009,08,07,15,09,17.40
2009,08,07,15,10,17.40
2009,08,07,15,11,17.40
2009,08,07,15,12,17.50
2009,08,07,15,13,17.60
2009,08,07,15,14,17.60
2009,08,07,15,15,17.70
2009,08,07,15,16,17.70
2009,08,07,15,17,17.90
2009,08,07,15,18,18.00
2009,08,07,15,19,18.00
2009,08,07,15,20,18.00
2009,08,07,15,21,17.90
2009,08,07,15,22,17.80
2009,08,07,15,23,17.60
2009,08,07,15,24,17.50
2009,08,07,15,25,17.50
2009,08,07,15,26,17.50
2009,08,07,15,27,17.40
2009,08,07,15,28,17.40
2009,08,07,15,29,17.40
2009,08,07,15,30,17.40
2009,08,07,15,31,17.50
2009,08,07,15,32,17.60
2009,08,07,15,33,17.70
2009,08,07,15,34,17.70
2009,08,07,15,35,17.90
2009,08,07,15,36,18.10
2009,08,07,15,37,18.30
2009,08,07,15,38,18.40
2009,08,07,15,39,18.30
2009,08,07,15,40,18.20
2009,08,07,15,41,18.00
2009,08,07,15,42,18.00
2009,08,07,15,43,17.90
2009,08,07,15,44,17.90
2009,08,07,15,45,17.90
2009,08,07,15,46,17.90
2009,08,07,15,47,17.80
2009,08,07,15,48,17.70
2009,08,07,15,49,17.60
2009,08,07,15,50,17.60
2009,08,07,15,51,17.60
2009,08,07,15,52,17.60
2009,08,07,15,53,17.50
2009,08,07,15,54,17.50
2009,08,07,15,55,17.50
2009,08,07,15,56,17.40
2009,08,07,15,57,17.30
2009,08,07,15,58,17.30
2009,08,07,15,59,17.20
2009,08,07,16,00,17.20
2009,08,07,16,01,17.20
2009,08,07,16,02,17.20
2009,08,07,16,03,17.20
2009,08,07,16,04,17.10
2009,08,07,16,05,17.10
2009,08,07,16,06,17.00
2009,08,07,16,07,17.10
2009,08,07,16,08,17.00
2009,08,07,16,09,17.00
2009,08,07,16,10,16.90
2009,08,07,16,11,16.90
2009,08,07,16,12,16.90
2009,08,07,16,13,16.90
2009,08,07,16,14,16.90
2009,08,07,16,15,16.90
2009,08,07,16,16,16.80
2009,08,07,16,17,16.70
2009,08,07,16,18,16.70
2009,08,07,16,19,16.60
2009,08,07,16,20,16.70
2009,08,07,16,21,16.70
2009,08,07,16,22,16.70
2009,08,07,16,23,16.70
2009,08,07,16,24,16.70
2009,08,07,16,25,16.70
2009,08,07,16,26,16.70
2009,08,07,16,27,16.70
2009,08,07,16,28,16.70
2009,08,07,16,29,16.60
2009,08,07,16,30,16.50
2009,08,07,16,31,16.50
2009,08,07,16,32,16.50
2009,08,07,16,33,16.50
2009,08,07,16,34,16.60
2009,08,07,16,35,16.60
2009,08,07,16,36,16.60
2009,08,07,16,37,16.70
2009,08,07,16,38,16.60
2009,08,07,16,39,16.60
2009,08,07,16,40,16.60
2009,08,07,16,41,16.50
2009,08,07,16,42,16.40
2009,08,07,16,43,16.40
2009,08,07,16,44,16.40
2009,08,07,16,45,16.40
2009,08,07,16,46,16.40
2009,08,07,16,47,16.40
2009,08,07,16,48,16.30
2009,08,07,16,49,16.30
2009,08,07,16,50,16.30
2009,08,07,16,51,16.30
2009,08,07,16,52,16.30
2009,08,07,16,53,16.30
2009,08,07,16,54,16.30
2009,08,07,16,55,16.30
2009,08,07,16,56,16.30
2009,08,07,16,57,16.30
2009,08,07,16,58,16.30
2009,08,07,16,59,16.40
2009,08,07,17,00,16.40
2009,08,07,17,01,16.40
2009,08,07,17,02,16.50
2009,08,07,17,03,16.50
2009,08,07,17,04,16.60
2009,08,07,17,05,16.60
2009,08,07,17,06,16.60
2009,08,07,17,07,16.70
2009,08,07,17,08,16.80
2009,08,07,17,09,16.90
2009,08,07,17,10,17.00
2009,08,07,17,11,17.10
2009,08,07,17,12,17.20
2009,08,07,17,13,17.30
2009,08,07,17,14,17.40
2009,08,07,17,15,17.60
2009,08,07,17,16,17.70
2009,08,07,17,17,17.80
2009,08,07,17,18,17.80
2009,08,07,17,19,17.80
2009,08,07,17,20,17.80
2009,08,07,17,21,17.80
2009,08,07,17,22,17.80
2009,08,07,17,23,17.80
2009,08,07,17,24,17.80
2009,08,07,17,25,17.80
2009,08,07,17,26,17.80
2009,08,07,17,27,17.80
2009,08,07,17,28,17.80
2009,08,07,17,29,17.90
2009,08,07,17,30,18.00
2009,08,07,17,31,18.00
2009,08,07,17,32,18.10
2009,08,07,17,33,18.20
2009,08,07,17,34,18.30
2009,08,07,17,35,18.30
2009,08,07,17,36,18.40
2009,08,07,17,37,18.40
2009,08,07,17,38,18.30
2009,08,07,17,39,18.30
2009,08,07,17,40,18.20
2009,08,07,17,41,18.20
2009,08,07,17,42,18.20
2009,08,07,17,43,18.20
2009,08,07,17,44,18.20
2009,08,07,17,45,18.30
2009,08,07,17,46,18.30
2009,08,07,17,47,18.30
2009,08,07,17,48,18.30
2009,08,07,17,49,18.40
2009,08,07,17,50,18.50
2009,08,07,17,51,18.60
2009,08,07,17,52,18.70
2009,08,07,17,53,18.70
2009,08,07,17,54,18.70
2009,08,07,17,55,18.70
2009,08,07,17,56,18.70
2009,08,07,17,57,18.70
2009,08,07,17,58,18.70
2009,08,07,17,59,18.70
2009,08,07,18,00,18.70
2009,08,07,18,01,18.70
2009,08,07,18,02,18.70
2009,08,07,18,03,18.70
2009,08,07,18,04,18.70
2009,08,07,18,05,18.70
2009,08,07,18,06,18.70
2009,08,07,18,07,18.80
2009,08,07,18,08,18.90
2009,08,07,18,09,19.00
2009,08,07,18,10,19.10
2009,08,07,18,11,19.10
2009,08,07,18,12,19.10
2009,08,07,18,13,19.00
2009,08,07,18,14,19.00
2009,08,07,18,15,19.00
2009,08,07,18,16,19.00
2009,08,07,18,17,19.00
2009,08,07,18,18,19.00
2009,08,07,18,19,19.00
2009,08,07,18,20,19.00
2009,08,07,18,21,19.10
2009,08,07,18,22,19.10
2009,08,07,18,23,19.10
2009,08,07,18,24,19.10
2009,08,07,18,25,19.10
2009,08,07,18,26,19.10
2009,08,07,18,27,19.10
2009,08,07,18,28,19.10
2009,08,07,18,29,19.20
2009,08,07,18,30,19.20
2009,08,07,18,31,19.20
2009,08,07,18,32,19.20
2009,08,07,18,33,19.20
2009,08,07,18,34,19.20
2009,08,07,18,35,19.20
2009,08,07,18,36,19.20
2009,08,07,18,37,19.10
2009,08,07,18,38,19.10
2009,08,07,18,39,19.10
2009,08,07,18,40,19.00
2009,08,07,18,41,19.00
2009,08,07,18,42,19.00
2009,08,07,18,43,19.10
2009,08,07,18,44,19.10
2009,08,07,18,45,19.10
2009,08,07,18,46,19.10
2009,08,07,18,47,19.10
2009,08,07,18,48,19.10
2009,08,07,18,49,19.00
2009,08,07,18,50,19.00
2009,08,07,18,51,18.90
2009,08,07,18,52,18.90
2009,08,07,18,53,18.90
2009,08,07,18,54,18.90
2009,08,07,18,55,18.80
2009,08,07,18,56,18.80
2009,08,07,18,57,18.70
2009,08,07,18,58,18.70
2009,08,07,18,59,18.60
2009,08,07,19,00,18.60
2009,08,07,19,01,18.60
2009,08,07,19,02,18.50
2009,08,07,19,03,18.50
2009,08,07,19,04,18.40
2009,08,07,19,05,18.40
2009,08,07,19,06,18.40
2009,08,07,19,07,18.40
2009,08,07,19,08,18.30
2009,08,07,19,09,18.30
2009,08,07,19,10,18.20
2009,08,07,19,11,18.20
2009,08,07,19,12,18.10
2009,08,07,19,13,18.10
2009,08,07,19,14,18.10
2009,08,07,19,15,18.00
2009,08,07,19,16,18.00
2009,08,07,19,17,18.00
2009,08,07,19,18,18.00
2009,08,07,19,19,18.00
2009,08,07,19,20,18.00
2009,08,07,19,21,18.00
2009,08,07,19,22,18.00
2009,08,07,19,23,18.00
2009,08,07,19,24,18.00
2009,08,07,19,25,18.00
